Hourly Data Report for July 26, 2021

POND INLET A
NUNAVUT
Current Station Operator: NAVCAN

72°41'22.000" N
77°58'08.000" W
61.60 m
2403206
71095
YIO

Download Data

Hourly Data (July 2021)
Hourly Data Report for July 26, 2021
TIME
LST
Temp Definition
°C
Dew Point Definition
°C
Rel Hum Definition
%
Precip. Amount Definition
mm

Wind Dir Definition
10's deg

Wind Spd Definition
km/h
Visibility Definition
km
Stn Press Definition
kPa
Hmdx Definition


Wind Chill Definition


Weather Definition


00:00 4.1 0.9 80 0.8 7 28 16.1 98.71     Rain
01:00 4.0 1.0 81 0.5 5 32 16.1 98.72     Rain
02:00 4.1 0.8 79 0.5 6 32 16.1 98.70     Rain
03:00 4.2 1.2 81 0.2 6 22 16.1 98.71     Rain
04:00 4.2 0.9 79 0.2 6 28 16.1 98.66     Rain
05:00 4.9 0.5 73 0.0 5 28 16.1 98.71     LegendNANA
06:00 4.9 0.8 75 0.0 5 30 16.1 98.69     LegendNANA
07:00 5.2 1.1 75 0.0 6 28 16.1 98.69     LegendNANA
08:00 5.2 1.0 74 0.0 6 26 16.1 98.67     LegendNANA
09:00 8.0 2.4 68 0.0 8 13 16.1 98.64     LegendNANA
10:00 8.5 3.0 68 0.0 5 15 16.1 98.63     LegendNANA
11:00 6.8 2.0 72 0.0 6 21 16.1 98.63     LegendNANA
12:00 7.1 1.9 70 0.0 6 26 16.1 98.61     LegendNANA
13:00 8.0 2.5 68 0.0 5 18 16.1 98.62     LegendNANA
14:00 7.3 2.0 69 0.0 6 21 16.1 98.63     LegendNANA
15:00 7.7 2.5 70 0.0 6 9 16.1 98.63     Rain
16:00 7.0 2.3 72 0.0 5 15 16.1 98.65     Rain
17:00 6.8 3.3 78 0.0 29 8 16.1 98.65     Rain
18:00 6.4 3.4 81 0.0 LegendMM 4 16.1 98.68     Rain
19:00 7.4 4.6 82 0.0 LegendMM 4 16.1 98.70     Rain
20:00 6.5 4.2 85 0.2 21 5 16.1 98.73     Rain
21:00 6.3 4.4 88 0.5 3 5 16.1 98.76     Rain
22:00 6.3 4.9 90 0.5 LegendMM 5 16.1 98.79     Rain
23:00 6.3 5.1 92 0.2   0 16.1 98.79     Rain

Notes on Data Quality.

Legend

  • E = Estimated
  • M = Missing
  • NA = Not Available*
  • [empty] = Indicates an unobserved value
Date modified: